www.pogodaiklimat.ru

Погода и климат >> Архив погоды >> Россия >> Красноярский край >> Ермаковское


ПОГОДА в Ермаковском

  • Прогноз погоды в Ермаковском
  • Монитор погоды в Ермаковском

АРХИВ ПОГОДЫ в Ермаковском

Время (UTC), дата Ветер
(напр.,м/с)
 
Видим.   Явления Облачность Т
(С)
Тd
(С)
f
(%)
Тe
(С)
Тes
(С)
Комфортность P
(гПа)
Po
(гПа)
Тmin
(С)
Tmax
(С)
R
(мм)
R24
(мм)
S
(см)
06 17.02 В 2 20 км 10/10 1000 м
[Sc]
-1.5 -14.5 36 -4 -4 1021.1 983.8
09 17.02 В 2 20 км 4/0
[Ac trans]
+1.7 -14.4 29 -1 +1 1017.6 980.8
12 17.02 В 1 н/о 3/3 1000 м
[Sc]
-2.9 -16.3 35 -4 -4 1016.3 978.8 +2.8
15 17.02 штиль 0 н/о 4/0
[Ci fib]
-8.4 -15.4 57 -9 -9 1015.9 977.8
18 17.02 штиль 0 н/о 4/0
[Ci fib]
-12.0 -16.4 70 -12 -12 1015.7 977.0
21 17.02 н/о -15.0
00 18.02 штиль 0 н/о 3/3 1000 м
[Sc]
-17.2 -19.1 85 -17 -17 1015.0 975.6 -17.2 21
03 18.02 штиль 0 10 км ясно -11.3 -17.5 60 -11 -9 1015.4 976.9 -17.5
06 18.02 В 1 20 км 9/0
[Ac lent Cc]
-0.1 -13.4 36 -1 +2 1012.2 975.4
09 18.02 В 1 20 км 9/0
[Ac lent Ci fib]
+3.2 -13.8 27 +3 +4 1010.8 974.4
12 18.02 штиль 0 н/о 10/3 1000 м
[Sc Ac trans Ci fib]
-1.7 -10.9 49 -2 -2 1011.9 974.9 +3.5
15 18.02 З 1 н/о 10/10 1000 м
[Sc]
-4.6 -11.2 60 -6 -6 1012.7 975.3
18 18.02 штиль 0 н/о 10/10 1000 м
[Sc]
-7.4 -11.8 71 -8 -8 1013.7 975.8
21 18.02 З 1 н/о 9/9
[Cb calv]
-9.5 -13.6 72 -12 -12 1015.0 976.8
00 19.02 Ю 1 н/о 8/3 1000 м
[Sc Ac trans Ci fib]
-11.1 -13.9 80 -13 -13 1018.6 980.0 -11.1 21
03 19.02 СВ 1 10 км 3/0
[Ci fib]
-9.6 -13.7 72 -12 -10 1020.9 982.5 -12.7
06 19.02 СВ 1 10 км 3/0
[Ci fib]
+1.5 -11.1 39 +1 +5 1019.4 982.5
09 19.02 З 1 20 км 10/0
[Cs]
+3.6 -7.0 46 +3 +4 1018.6 982.0
12 19.02 ЮЗ 1 н/о 10/0
[Cs]
0.0 -6.3 63 -2 -2 1020.0 982.8 +4.8
15 19.02 штиль 0 н/о 10/0
[Cs]
-3.6 -7.2 76 -4 -4 1021.2 983.6
18 19.02 СВ 1 н/о 10/0
[Ac As Cs]
-3.3 -6.1 81 -5 -5 1022.4 984.7
21 19.02 штиль 0 н/о 5/0
[Ac lent Ci sp]
-5.4 -7.2 87 -6 -6 1023.3 985.5
00 20.02 штиль 0 н/о 5/3 1000 м
[Sc Ac trans]
-9.8 -11.0 91 -10 -10 1025.2 986.5 -9.8 21
03 20.02 штиль 0 10 км 3/0
[Ac trans]
-5.2 -7.9 81 -6 -4 1025.8 987.7 -10.8
06 20.02 С 2 20 км 3/0
[Ci fib]
+2.8 -9.3 41 +1 +5 1024.1 987.2
09 20.02 СВ 2 20 км 8/0
[Ci fib]
+5.7 -9.6 32 +4 +5 1022.0 985.5
12 20.02 штиль 0 н/о 4/0
[Ci fib]
+0.3 -8.5 52 -0 -0 1022.1 985.0 +5.8
15 20.02 штиль 0 н/о ясно -5.6 -9.4 75 -6 -6 1023.3 985.3
18 20.02 штиль 0 н/о ясно -8.8 -11.2 83 -9 -9 1023.7 985.1
21 20.02 штиль 0 н/о ясно -10.3 -11.6 90 -11 -11 1023.5 984.8
00 21.02 штиль 0 н/о 4/0
[Ci fib]
-14.1 -14.7 95 -14 -14 1023.9 984.6 -14.1 21
03 21.02 штиль 0 10 км 5/0
[Ci fib]
-9.9 -12.0 85 -10 -8 1022.6 984.0 -14.5
06 21.02 З 1 10 км 10/0
[Ci sp]
+0.3 -10.0 46 -1 +3 1021.0 984.0
09 21.02 ЮЗ 2 10 км 9/0
[Cc]
+0.6 -8.5 50 -2 -1 1021.9 984.8
12 21.02 ЮВ 1 н/о 9/9 1000 м
[Sc]
-2.3 -8.7 61 -4 -4 1024.8 987.2 +1.6
15 21.02 З 2 н/о 10/10 1000 м
[Sc]
-0.5 -5.4 69 -4 -4 1027.7 990.3
18 21.02 З 3
{12}
н/о слаб. ливневой снег 10/10 600 м
[Cb cap]
-0.1 -3.8 76 -5 -5 1031.6 994.0
21 21.02 З 4
{10}
н/о {ливн. осадки} 10/10 600 м
[Cb cap]
-0.9 -7.1 63 -6 -6 1034.4 996.5
00 22.02 З 5
{12}
н/о {ливн. осадки} 10/10 1000 м
[Sc]
-3.6 -11.4 55 -10 -10 1037.4 999.2 -3.8 0.0 21
03 22.02 ЮЗ 4
{10}
20 км 4/0
[Ci fib]
-3.2 -12.0 51 -9 -7 1039.4 1001.1 -5.2
06 22.02 З 4 20 км 4/0
[Ac lent Ci fib]
-0.6 -12.7 39 -5 -3 1039.0 1001.2
09 22.02 З 3 20 км 1/1 1000 м
[Sc]
+0.1 -13.8 34 -4 -2 1038.3 1000.5
12 22.02 ЮЗ 1 н/о ясно -3.6 -13.2 47 -5 -5 1039.5 1001.2 +0.1
15 22.02 штиль 0 н/о ясно -9.7 -12.8 78 -10 -10 1040.4 1001.1
18 22.02 штиль 0 н/о 9/0
[Ac trans]
-13.2 -14.5 90 -13 -13 1040.9 1001.1
21 22.02 штиль 0 н/о 3/0
[Ci fib]
-14.6 -15.9 90 -15 -15 1040.4 1000.5
00 23.02 штиль 0 н/о 10/10 1000 м
[Sc]
-13.6 -14.9 90 -14 -14 1040.7 1000.9 -15.1 20
03 23.02 штиль 0 10 км 9/9 1000 м
[Sc]
-11.7 -13.7 85 -12 -12 1040.5 1000.9
06 23.02 С 1 20 км 8/0
[Ac lent Cc]
-0.7 -11.2 45 -2 +1 1037.5 999.7
09 23.02 З 2 20 км 6/0
[Ac lent Cc]
+2.2 -9.3 42 -0 +1 1035.5 998.2
12 23.02 штиль 0 н/о 3/3 1000 м
[Sc]
-1.4 -10.4 50 -2 -2 1035.5 997.6 +2.5
15 23.02 штиль 0 н/о ясно -6.8 -10.5 75 -7 -7 1035.9 997.2
18 23.02 штиль 0 н/о ясно -10.9 -12.2 90 -11 -11 1034.8 995.6
21 23.02 штиль 0 н/о ясно -12.4 -13.0 95 -12 -12 1033.3 993.9
00 24.02 С 1 н/о ясно -16.4 -17.7 90 -19 -19 1031.6 991.7 -16.4 19

 

Местоположение метеостанции Ермаковское (Красноярский край, Россия): широта 53.30 долгота 92.42 высота над уровнем моря 298 м.

В архиве по умолчанию представлена погода в Ермаковском за последнюю неделю. Архивные данные за месяц целиком и за предыдущие месяцы, начиная с января 2011 года, Вы можете получить, выбрав интересующий диапазон дат из раскрывающегося списка и нажав кнопку "Ввод!".


*Определитесь, кто Вы:
робот инопланетянин человек

Внимание! Время в таблицах - всемирное. Для получения местного времени необходимо прибавить поправку, которая равна 7 ч.

Смотрите также архив погоды в соседних городах и на ближайших метеорологических станциях:

Погода в Каратузском (Красноярский край, Россия) (44 км)
Погода в Теси (Красноярский край, Россия) (65 км)
Погода в Минусинске (Красноярский край, Россия) (67 км)
Погода в Курагино (Красноярский край, Россия) (69 км)
Погода в Саяногорске (Хакасия, Россия) (70 км)
Погода в Оленьей Речке (Красноярский край, Россия) (78 км)
Погода в Черемушках (Хакасия, Россия) (87 км)
Погода в Карловом Створе (Хакасия, Россия) (88 км)
Погода в Хакасской (Хакасия, Россия) (90 км)
Погода в Бее (Хакасия, Россия) (104 км)

Пояснения к столбцам:

Ветер - указаны скорость ветра в м/с - средняя за 10 мин, порывы в срок и между сроками (в фигурных скобках) и направление, откуда дует ветер: С - северный, СВ - северо-восточный, В - восточный, ЮВ - юго-восточный, Ю - южный, ЮЗ - юго-западный, З - западный, СЗ - северо-западный.
Видимость - горизонтальная дальность видимости в метрах или километрах. При видимости от 1 до 10 км при отсутствии осадков обычно наблюдается дымка, при ухудшении видимости до 1 км и менее - туман. В сухую погоду видимость может ухудшаться дымом, пылью или мглою.
Явления - указаны атмосферные явления, наблюдавшиеся в срок или в последний час перед сроком; фигурными скобками обозначены явления, наблюдавшиеся между сроками (за 1-3 часа до срока); квадратными скобками обозначены град или гололедные отложения с указанием их диаметра в мм.
Облачность - указаны через наклонную черту общая и нижняя облачность в баллах и высота нижней границы облаков в метрах; квадратными скобками обозначены формы облаков: Ci - перистые, Cs - перисто-слоистые, Cc - перисто-кучевые, Ac - высококучевые, As - высокослоистые, Sc - слоисто-кучевые, Ns - слоисто-дождевые, Cu - кучевые, Cb - кучево-дождевые. Подробнее классификацию облаков см. в Атласе облаков (PDF).
T - Температура воздуха - температура, измеренная на высоте 2 м над землей.
Td - Температура точки росы - температура, при понижении до которой содержащийся в воздухе водяной пар достигнет насыщения.
f - Относительная влажность воздуха - влажноcть воздуха, измеренная на высоте 2 м над землей.
Te - Эффективная температура - температура, которую ощущает одетый по сезону человек в тени. Характеристика душности погоды. При расчете учитывается влияние влажности воздуха и скорости ветра на теплоощущения человека.
Tes - Эффективная температура на солнце - температура, которую ощущает человек, с поправкой на солнечный нагрев. Характеристика знойности погоды. Зависит от высоты солнца над горизонтом, облачности и скорости ветра. Ночью, в пасмурную погоду, а также при ветре 12 м/с и более поправка равна нулю.
P - Атмосферное давление - приведенное к уровню моря атмосферное давление.
Po - Атмосферное давление - измеренное на уровне метеостанции атмосферное давление.
Tmin - Минимальная температура - минимум температуры воздуха на высоте 2 м над землей.
Tmax - Максимальная температура - максимум температуры воздуха на высоте 2 м над землей.
R - Количество осадков - Количество выпавших осадков за период времени, мм. При наведении курсора мыши на число - период времени, за который выпало указанное количество осадков.
R24 - Количество осадков - Количество выпавших осадков за 24 часа, мм.
S - Снежный покров - Высота снежного покрова, см. При наведении курсора мыши на число - состояние снежного покрова и степень покрытия местности в баллах.